Showing default

TIANMU-1 20, 58661

Orbit data source: Space-Track

TIANMU-1 20, 58661 is a payload satellite owned by Hangtian Tianmu (CN) in SSO that was launched on Wed, 27 Dec 2023 UTC via a KUAIZHOU-1A launch vehicle from the Jiuquan Satellite Launch Center, China (JSC). Payload-class satellites include a variety of spacecraft equipped with specific instruments for various scientific and technological missions. These include communications satellites like Starlink; space stations such as the ISS; scientific satellites like the Hubble; Earth observation satellites from companies like Planet Labs, Umbra, and HawkEye 360; GPS; miniature CubeSats for education and research; and military/defense satellites.

Loading next visibility...
Identifier
58661, 2023-208B
Orbit
SSO
Country
Flag of CNCN / PRC
Related business
Manufacturer
Hangtian Tianmu
Mission
Operational Commercial Weather
Bus & Motor
TIANMU, Unknown motor
Mass
50 kg wet, ~50 kg dry
Launch date (UTC)
2023-12-27 (2 years ago)
Launch vehicle
KUAIZHOU-1A
Launch site
Jiuquan Satellite Launch Center, China (JSC)
Object type
Payload
Rocket body
Debris
Shape & HBR
Box, 0.8 m
Radar Cross Section
2.000 m², Medium (>0.1 m² and < 1m²)

Expand to show TLE details & history
Last TLE update: 21 hours ago

TLE from 21 hours ago
0 TIANMU-1 20
1 58661U 23208B   26172.56804883  .00006296  00000-0  20107-3 0  9997
2 58661  97.4447 289.5303 0005732 315.3365  44.7415 15.32819357138096
Epoch: 2026-06-21T13:37Z
TLE epoch observation values (Epoch: 2026-06-21T13:37:59.418Z)
Latitude
-0.00002°
Longitude
175.26627°
Altitude
467.725 km
Speed
7.634 km/s
True Right ascension
19h 18m 07s
True Declination
0° 00' 00"
Sunlit
Object was in full shadow at epoch
Visualization orbit readout
Latitude
Unknown
Longitude
Unknown
Altitude
Unknown
Speed
Unknown
Apparent Right ascension
Unknown
Apparent Declination
Unknown
Sunlit
N/A
Visualization observer readout
Local Sidereal Time
21:31:02
Azimuth
Unknown
Elevation
Unknown
Doppler factor
Unknown
Orbital elements
Apogee altitude
468.278 km
Perigee altitude
460.434 km
Semi-major axis
6,842.493 km
Eccentricity
0.00057
Inclination
97.4447°
RAAN
289.5303°
Arg. of periapsis
315.3365°
True anomaly
44.78776°
Mean anomaly
44.7415°
Eccentric anomaly
44.76463°
Mean motion
3.83461 °/min
Orbital period
93.88 mins
BSTAR
0.00020107
Loading maneuver chart data...
Computing Atmospheric mass density...
Loading historical data...
Loading historical data...
Loading historical data...
Loading historical data...
Loading historical data...
Loading historical data...
Loading historical data...
Other satellites on launch #208 in the year 2023 (2023-12-27 UTC)

Documentation

Showing up to 5 results
|